Carbondale, IL

10:58 AM CDT on August 17, 2017 (GMT -0500)
Southern Illinois

Weather History for KMDH - December, 2013

Change the Weather History Date:

Monday, December 30, 2013

  Actual Average Record
Temperature  
Mean Temperature 22 °F -  
Max Temperature 28 °F 41 °F 68 °F (1923)
Min Temperature 16 °F 26 °F -6 °F (1917)
Degree Days  
Heating Degree Days 44    
Moisture  
Dew Point 11 °F    
Average Humidity 61    
Maximum Humidity 75    
Minimum Humidity 43    
Precipitation  
Precipitation 0.00 in - - ()
Sea Level Pressure  
Sea Level Pressure 30.31 in    
Wind  
Wind Speed 7 mph (NNW)    
Max Wind Speed 13 mph    
Max Gust Speed -    
Visibility 10 miles    
Events      
Averages and records for this station are not official NWS values.
T = Trace of Precipitation, MM = Missing Value Source: NWS Daily Summary

Daily Weather History Graph

Daily Weather History Graph

Search for Another Location

Airport or City:

Trip Planner

Search our weather history database for the weather conditions in past years. The results will help you decide how hot, cold, wet, or windy it might be!

Date:

Astronomy

Dec. 30, 2013 Rise Set
Actual Time 7:12 AM CST 4:47 PM CST
Civil Twilight 6:42 AM CST 5:16 PM CST
Nautical Twilight 6:09 AM CST 5:49 PM CST
Astronomical Twilight 5:38 AM CST 6:21 PM CST
Moon 5:02 AM CST (12/30) 3:19 PM CST (12/30)
Length of Visible Light 10h 33m
Length of Day
9h 35m
Waning Crescent, 4% of the Moon is Illuminated
Dec 30
Waning Crescent
Jan 1
New
Jan 7
First Quarter
Jan 15
Full
Jan 23
Last Quarter

Hourly Weather History & Observations

Time (CST) Temp. Windchill Dew Point Humidity Pressure Visibility Wind Dir Wind Speed Gust Speed Precip Events Conditions
12:52 AM 21.9 °F 9.8 °F 12.9 °F 68% 30.27 in 10.0 mi NNW 12.7 mph - N/A   Scattered Clouds
1:15 AM 21.9 °F 12.5 °F 12.9 °F 68% 30.27 in 10.0 mi NW 8.1 mph - N/A   Mostly Cloudy
1:49 AM 21.2 °F 10.1 °F 12.2 °F 68% 30.27 in 10.0 mi NNW 10.4 mph - N/A   Scattered Clouds
1:52 AM 21.0 °F 8.6 °F 12.9 °F 71% 30.29 in 10.0 mi NNW 12.7 mph - N/A   Partly Cloudy
2:52 AM 19.9 °F 11.1 °F 10.9 °F 68% 30.32 in 10.0 mi North 6.9 mph - N/A   Clear
3:52 AM 19.0 °F 10.0 °F 10.9 °F 71% 30.32 in 10.0 mi NNW 6.9 mph - N/A   Clear
4:52 AM 18.0 °F 6.9 °F 7.0 °F 62% 30.33 in 10.0 mi NNW 9.2 mph - N/A   Clear
5:52 AM 16.0 °F 4.4 °F 7.0 °F 68% 30.34 in 10.0 mi NNW 9.2 mph - N/A   Clear
6:52 AM 16.0 °F 5.3 °F 7.0 °F 68% 30.35 in 10.0 mi North 8.1 mph - N/A   Clear
7:52 AM 16.0 °F 7.4 °F 7.0 °F 68% 30.36 in 10.0 mi North 5.8 mph - N/A   Clear
8:52 AM 17.1 °F 8.7 °F 8.1 °F 68% 30.38 in 10.0 mi NNW 5.8 mph - N/A   Clear
9:52 AM 19.9 °F 11.1 °F 8.1 °F 60% 30.38 in 10.0 mi North 6.9 mph - N/A   Clear
10:52 AM 26.1 °F 19.4 °F 9.0 °F 49% 30.36 in 10.0 mi Variable 5.8 mph - N/A   Clear
11:52 AM 26.1 °F 20.5 °F 8.1 °F 47% 30.32 in 10.0 mi NE 4.6 mph - N/A   Clear
12:52 PM 27.0 °F - 7.0 °F 43% 30.31 in 10.0 mi Calm Calm - N/A   Clear
1:52 PM 26.1 °F - 6.1 °F 43% 30.29 in 10.0 mi Calm Calm - N/A   Clear
2:52 PM 27.0 °F - 9.0 °F 47% 30.28 in 10.0 mi Calm Calm - N/A   Clear
3:52 PM 27.0 °F - 9.0 °F 47% 30.28 in 10.0 mi Calm Calm - N/A   Scattered Clouds
4:52 PM 27.0 °F - 10.0 °F 49% 30.28 in 10.0 mi Calm Calm - N/A   Clear
5:52 PM 25.0 °F - 14.0 °F 63% 30.29 in 10.0 mi Calm Calm - N/A   Clear
6:52 PM 24.1 °F 19.7 °F 14.0 °F 65% 30.30 in 10.0 mi SSE 3.5 mph - N/A   Mostly Cloudy
7:52 PM 21.9 °F - 15.1 °F 75% 30.30 in 10.0 mi Calm Calm - N/A   Mostly Cloudy
8:52 PM 24.1 °F 19.7 °F 14.0 °F 65% 30.30 in 10.0 mi South 3.5 mph - N/A   Overcast
9:52 PM 25.0 °F 18.1 °F 15.1 °F 66% 30.30 in 10.0 mi South 5.8 mph - N/A   Overcast
10:52 PM 27.0 °F 18.0 °F 12.0 °F 53% 30.30 in 10.0 mi SW 9.2 mph - N/A   Overcast
11:52 PM 28.0 °F 18.6 °F 14.0 °F 56% 30.29 in 10.0 mi SSW 10.4 mph - N/A   Overcast